This is the latest recevied weather packets stored in our database for station/object EB5AGF-13. If no packets are shown the sender has not sent any weather packets the latest 10 day(s).
| Time | Temp. | Humidity | Pressure | Rain* | Wind** | Luminosity | Snow |
|---|---|---|---|---|---|---|---|
| 1777714411 | 20° C | 82% | 1017.4 hPa | 0 mm | 0.89 m/s, 54° | 185 W/m² | - |
| 1777714107 | 20° C | 82% | 1017.4 hPa | 0 mm | 1.34 m/s, 351° | 169 W/m² | - |
| 1777713803 | 20.56° C | 81% | 1017.1 hPa | 0 mm | 0.89 m/s, 57° | 157 W/m² | - |
| 1777713499 | 20° C | 80% | 1017.5 hPa | 0 mm | 1.79 m/s, 283° | 177 W/m² | - |
| 1777713195 | 20.56° C | 78% | 1017.3 hPa | 0 mm | 1.79 m/s, 76° | 174 W/m² | - |
| 1777712891 | 20.56° C | 78% | 1017.4 hPa | 0 mm | 1.79 m/s, 56° | 162 W/m² | - |
| 1777712588 | 20° C | 79% | 1017.4 hPa | 0 mm | 1.34 m/s, 10° | 187 W/m² | - |
| 1777712283 | 20° C | 79% | 1017.3 hPa | 0 mm | 1.34 m/s, 46° | 184 W/m² | - |
| 1777711980 | 20° C | 80% | 1017.4 hPa | 0 mm | 0.89 m/s, 333° | 178 W/m² | - |
| 1777711675 | 20.56° C | 79% | 1017.3 hPa | 0 mm | 1.79 m/s, 62° | 159 W/m² | - |
| 1777711371 | 20.56° C | 79% | 1017.3 hPa | 0 mm | 2.24 m/s, 53° | 205 W/m² | - |
| 1777711067 | 20° C | 81% | 1017.4 hPa | 0 mm | 2.68 m/s, 12° | 242 W/m² | - |
| 1777710763 | 20° C | 83% | 1017.4 hPa | 0 mm | 0.89 m/s, 319° | 269 W/m² | - |
| 1777710460 | 20° C | 84% | 1017.3 hPa | 0 mm | 1.34 m/s, 62° | 219 W/m² | - |
| 1777710152 | 20° C | 84% | 1017.1 hPa | 0 mm | 2.68 m/s, 28° | 137 W/m² | - |
| 1777709851 | 20° C | 85% | 1017.1 hPa | 0 mm | 1.34 m/s, 5° | 143 W/m² | - |
| 1777709547 | 19.44° C | 85% | 1017.4 hPa | 0 mm | 2.24 m/s, 60° | 150 W/m² | - |
| 1777709244 | 19.44° C | 85% | 1017.3 hPa | 0 mm | 1.79 m/s, 27° | 145 W/m² | - |
| 1777708939 | 19.44° C | 85% | 1017.4 hPa | 0 mm | 1.79 m/s, 29° | 146 W/m² | - |
| 1777708635 | 19.44° C | 85% | 1017.3 hPa | 0 mm | 0.89 m/s, 209° | 129 W/m² | - |
| 1777708331 | 19.44° C | 85% | 1017.3 hPa | 0 mm | 2.24 m/s, 51° | 125 W/m² | - |
| 1777708029 | 19.44° C | 85% | 1017.5 hPa | 0 mm | 1.79 m/s, 77° | 115 W/m² | - |
| 1777707723 | 19.44° C | 85% | 1017.2 hPa | 0 mm | 2.68 m/s, 359° | 185 W/m² | - |
| 1777707419 | 19.44° C | 86% | 1017.4 hPa | 0 mm | 1.79 m/s, 345° | 135 W/m² | - |
| 1777707115 | 19.44° C | 86% | 1017.3 hPa | 0 mm | 0.89 m/s, 70° | 97 W/m² | - |
* Rain latest hour (hover to see other rain measurements)
** Current wind speed in m/s (hover to see current wind gust speed)